INMARSAT 3-F2           
1 24307U 96053A   19265.45730340 -.00000351  00000-0  00000+0 0  9997
2 24307   4.3277  73.4331 0004354  93.3085 114.8470  0.99990934 84353
SL-12 R/B(2)            
1 25339U 96053D   19265.23799398 -.00000131  00000-0  00000+0 0  9993
2 25339  14.2037  21.7345 0053995 257.8019 112.1059  0.98094466 76554